Regional Weather Roundup
Issued by NWS

Home | Current Version | Previous Version | Text Only | Print | Product List | Glossary Off
Versions: 1 2 3 4 5 6 7 8 9 10 11 12 13 14 15 16 17 18 19 20 21 22 23 24 25 26 27 28 29 30 31 32 33 34 35 36 37 38 39 40 41 42 43 44 45 46 47 48 49 50

000
ASUS43 KFSD 230902
RWRSD

WEATHER ROUNDUP FOR SOUTH DAKOTA
NATIONAL WEATHER SERVICE SIOUX FALLS SD
400 AM CDT SAT SEP 23 2017

NOTE: "FAIR" INDICATES FEW OR NO CLOUDS BELOW 12,000 FEET WITH NO
SIGNIFICANT WEATHER AND/OR OBSTRUCTIONS TO VISIBILITY.


SDZ001>005-009-010-012>017-231000-
NORTHWEST AND NORTH CENTRAL SOUTH DAKOTA

CITY           SKY/WX    TMP DP  RH WIND       PRES   REMARKS
BUFFALO          N/A     42  39  89 N7        30.00R
FAITH            N/A     45  45 100 NW6       30.06R
MOBRIDGE       CLOUDY    51  46  83 NE12      29.99R
$$

SDZ012>016-024>037-041>051-057-063-072>074-231000-
SOUTHWEST AND SOUTH CENTRAL SOUTH DAKOTA

CITY           SKY/WX    TMP DP  RH WIND       PRES   REMARKS
RAPID CTY ARPT NOT AVBL
PIERRE         CLOUDY    48  46  93 NW8       29.98R
CUSTER         FOG       39  38  96 MISG      30.03S VSB 1/4
ELLSWORTH AFB  CLOUDY    44  44 100 N13       30.03
PHILIP         CLOUDY    49  43  80 NW7       30.02R
PINE RIDGE     PTCLDY    46  41  82 N8        30.01F
SPEARFISH      CLOUDY    43  41  93 CALM      30.06S
WINNER         TSTM      51  49  92 N5        29.96R FOG
$$

SDZ004>011-016>023-039-040-231000-
NORTHEAST SOUTH DAKOTA

CITY           SKY/WX    TMP DP  RH WIND       PRES   REMARKS
ABERDEEN       RAIN      53  51  93 NW13      30.00R
WATERTOWN      CLOUDY    56  55  97 N14       29.90R
BROOKINGS      CLOUDY    60  59  96 NW8       29.89R
SISSETON         N/A     57  54  89 NW13      29.89R
$$

SDZ017-020-022-023-036>040-048>070-231000-
SOUTHEAST SOUTH DAKOTA

CITY           SKY/WX    TMP DP  RH WIND       PRES   REMARKS
SIOUX FALLS    PTCLDY    64  62  93 NW6       29.87R
HURON          CLOUDY    54  52  93 NW14      29.96R
CHAMBERLAIN    CLOUDY    53  53  99 NW14G20   29.96F
MITCHELL       CLOUDY    55  51  86 NW17G23   29.95R
YANKTON        MOCLDY    59  57  93 NW10      29.90R
$$

ABBREVIATIONS USED IN REMARKS
   TC - TEMPERATURE IN CELSIUS
  WCI - WIND CHILL INDEX
   HX - HEAT INDEX
  VSB - VISIBILITY




USA.gov is the U.S. government's official web portal to all federal, state and local government web resources and services.